• MPC Preparation (Info)

  • MPEC 2010-V96 : 2010 VZ71

    The following Minor Planet Electronic Circular may be linked-to from your own Web pages, but must not otherwise be redistributed electronically.

    A form allowing access to any MPEC is at the bottom of this page.


    Read MPEC 2010-V95 Read MPEC 2010-V97


    M.P.E.C. 2010-V96                                Issued 2010 Nov.  9, 13:46 UT
    
         The Minor Planet Electronic Circulars contain information on unusual
             minor planets and routine data on comets.  They are published
       on behalf of Commission 20 of the International Astronomical Union by the
              Minor Planet Center, Smithsonian Astrophysical Observatory,
                              Cambridge, MA 02138, U.S.A.
    
                 Prepared using the Tamkin Foundation Computer Network
    
                                  MPC@CFA.HARVARD.EDU
           URL https://www.minorplanetcenter.org/iau/mpc.html  ISSN 1523-6714
    
                                       2010 VZ71
    
    Observations:
         K10V71Z* C2010 11 08.33532 03 53 31.05 +09 53 46.0          20.0 V EV096G96
         K10V71Z  C2010 11 08.34918 03 53 28.96 +09 54 05.2          20.2 V EV096G96
         K10V71Z  C2010 11 08.35609 03 53 27.96 +09 54 14.9          20.2 V EV096G96
         K10V71Z  C2010 11 08.39958 03 53 21.49 +09 55 15.1          19.8 R EV096H01
         K10V71Z  C2010 11 08.39986 03 53 21.48 +09 55 16.0          20.1 V EV096G96
         K10V71Z  C2010 11 08.40727 03 53 20.34 +09 55 25.8          19.9 R EV096H01
         K10V71Z  C2010 11 08.40854 03 53 20.18 +09 55 28.1          20.3 V EV096G96
         K10V71Z  C2010 11 08.41578 03 53 19.09 +09 55 37.6          19.8 R EV096H01
         K10V71Z  C2010 11 08.42466 03 53 17.77 +09 55 49.9          19.7 R EV096H01
         K10V71Z  C2010 11 08.43978 03 53 15.57 +09 56 11.3          20.1 V EV096G96
         K10V71Z  C2010 11 08.44860 03 53 14.28 +09 56 23.5          20.1 V EV096G96
         K10V71Z KC2010 11 09.32484703 51 09.19 +10 16 37.4          19.9 V EV096H21
         K10V71Z KC2010 11 09.33302303 51 08.04 +10 16 47.8          20.1 V EV096H21
         K10V71Z KC2010 11 09.34221303 51 06.66 +10 17 00.5          20.0 V EV096H21
         K10V71Z KC2010 11 09.37327 03 51 02.13 +10 17 43.3          20.1 R EV096H36
         K10V71Z KC2010 11 09.38549 03 51 00.41 +10 17 59.5          19.7 R EV096H36
         K10V71Z KC2010 11 09.39154 03 50 59.57 +10 18 08.8          19.4 R EV096H36
    
    Observer details:
    G96 Mt. Lemmon Survey.  Observer S. M. Larson.  Measurers J. D. Ahern,
        E. C. Beshore, A. Boattini, G. J. Garradd, A. R. Gibbs, A. D. Grauer,
        R. E. Hill, R. A. Kowalski, S. M. Larson, R. H. McNaught.  1.5-m reflector
        + CCD.
    H01 Magdalena Ridge Observatory, Socorro.  Observers W. H. Ryan, E. V. Ryan.
        Measurer W. H. Ryan.  2.4-m f/8.9 reflector + CCD.
    H21 Astronomical Research Observatory, Westfield.  Observer R. Holmes.
        Measurers S. Foglia, T. Vorobjov.  0.61-m f/4.0 astrograph + CCD.
    H36 Sandlot Observatory, Scranton.  Observer G. Hug.  0.56-m reflector + CCD.
    
    Orbital elements:
    2010 VZ71                                                Earth MOID = 0.2970 AU
    Epoch 2010 July 23.0 TT = JDT 2455400.5                 MPC
    M 358.65670              (2000.0)            P               Q
    n   0.16934779     Peri.  262.64670     +0.72335384     +0.59436938
    a   3.2355617      Node    60.20481     -0.35557538     +0.75691341
    e   0.6858776      Incl.   23.88689     -0.59188291     +0.27167469
    P   5.82           H   19.2           G   0.15           U   9
    Residuals in seconds of arc
    101108 G96  0.2+  0.1+    101108 G96  0.1-  0.1+    101109 H21  0.5+  0.2-
    101108 G96  0.3-  0.0     101108 H01  0.1+  0.1-    101109 H21  0.0   0.1-
    101108 G96  0.0   0.0     101108 H01  0.1-  0.1-    101109 H36  1.0-  0.1-
    101108 H01  0.2+  0.0     101108 G96  0.1-  0.1-    101109 H36  0.0   0.6-
    101108 G96  0.1+  0.1+    101108 G96  0.0   0.1-    101109 H36  0.6+  0.4+
    101108 H01  0.0   0.0     101109 H21  0.2-  0.6+
    
    Ephemeris:
    2010 VZ71                a,e,i = 3.24, 0.69, 24                  q = 1.0164
    Date    TT    R. A. (2000) Decl.     Delta      r     Elong.  Phase     V
    2010 11 10    03 49.56   +10 32.1    0.692    1.670   166.2     8.1    20.1
    2010 11 15    03 38.14   +12 20.6    0.730    1.715   172.5     4.3    20.1
    2010 11 20    03 27.69   +13 58.8    0.775    1.760   173.6     3.6    20.2
    2010 11 25    03 18.44   +15 26.5    0.827    1.805   168.5     6.2    20.6
    2010 11 30    03 10.54   +16 44.3    0.886    1.850   162.3     9.3    20.9
    2010 12 05    03 04.04   +17 53.4    0.951    1.895   156.0    12.2    21.2
    2010 12 10    02 58.96   +18 54.9    1.023    1.939   150.0    14.7    21.5
    2010 12 15    02 55.23   +19 50.2    1.099    1.984   144.3    16.8    21.8
    2010 12 20    02 52.75   +20 40.4    1.181    2.028   138.9    18.6    22.1
    
    Timothy B. Spahr             (C) Copyright 2010 MPC           M.P.E.C. 2010-V96
    

    Read MPEC 2010-V95 Read MPEC 2010-V97


    MPEC number:

    Enter an MPEC number in one of the following forms:

    • 1997-B01 (the full form)
    • J97B01 (the packed version of the full form)
    • B01 (the abbreviated form)